This demonstration page uses our WeatherBlox Daily Observations layout. Learn more.

36.17497, -115.13722

Hourly Observations for July 12, 2020

Temp ( °F °C ) Dew Point ( °F °C ) Humidity (%) Winds ( mph kmh ) Pressure ( in mb ) Visibility ( mi km ) Precip ( " mm )
12:53 am 00:53 Clear 97 36.1 46 7.8 17 17 Calm 29.83 1010 10 16.0934 0 0
1:53 am 01:53 Clear 94 34.4 45 7.2 18 18 WNW 6 9 29.81 1010 10 16.0934 0 0
2:53 am 02:53 Clear 95 35 44 6.7 17 17 W 3 6 29.81 1010 10 16.0934 0 0
3:53 am 03:53 Clear 92 33.3 45 7.2 20 20 N 5 7 29.8 1009 10 16.0934 0 0
4:53 am 04:53 Clear 91 32.8 44 6.7 20 20 Calm 29.82 1010 10 16.0934 0 0
5:53 am 05:53 Sunny 89 31.7 43 6.1 20 20 WNW 3 6 29.82 1010 10 16.0934 0 0
6:53 am 06:53 Sunny 92 33.3 47 8.3 21 21 NNW 5 7 29.83 1010 10 16.0934 0 0
7:53 am 07:53 Sunny 98 36.7 44 6.7 16 16 Calm 29.84 1011 10 16.0934 0 0
8:53 am 08:53 Sunny 102 38.9 43 6.1 13 13 Calm 29.84 1011 10 16.0934 0 0
9:53 am 09:53 Sunny 105 40.6 44 6.7 13 13 NNE 7 11 29.83 1010 10 16.0934 0 0
10:53 am 10:53 Sunny 108 42.2 44 6.7 12 12 ENE 8 13 29.82 1010 10 16.0934 0 0
11:53 am 11:53 Sunny 110 43.3 45 7.2 11 11 ESE 5 7 29.8 1009 10 16.0934 0 0
12:53 pm 12:53 Sunny 114 45.6 45 7.2 10 10 SSW 14 22 29.77 1008 10 16.0934 0 0
1:53 pm 13:53 Sunny 113 45 43 6.1 9 9 SSW 14 22 29.74 1007 10 16.0934 0 0
2:53 pm 14:53 Sunny 114 45.6 43 6.1 9 9 WSW 15 24 29.71 1006 10 16.0934 0 0
3:18 pm 15:18 Sunny 115 46.1 43 6.1 9 9 SW 16 26 29.51 999 10 16.0934 0 0
3:38 pm 15:38 Sunny 113 45 43 6.1 9 9 SSW 12 19 29.5 999 10 16.0934 0 0
3:53 pm 15:53 Sunny 115 46.1 41 5 8 8 W 18 30 29.69 1006 10 16.0934 0 0
4:00 pm 16:00 Sunny 114 45.6 41 5 8 8 WSW 13 20 29.49 999 10 16.0934 0 0
4:53 pm 16:53 Sunny 115 46.1 40 4.4 8 8 W 17 28 29.67 1005 10 16.0934 0 0
5:53 pm 17:53 Sunny 113 45 39 3.9 8 8 WSW 13 20 29.66 1004 10 16.0934 0 0
6:53 pm 18:53 Sunny 112 44.4 38 3.3 8 8 SW 12 19 29.66 1004 10 16.0934 0 0
7:53 pm 19:53 Sunny 110 43.3 37 2.8 8 8 SW 9 15 29.66 1004 10 16.0934 0 0
8:53 pm 20:53 Clear 108 42.2 38 3.3 9 9 SW 9 15 29.66 1004 10 16.0934 0 0
9:53 pm 21:53 Clear 105 40.6 39 3.9 10 10 WSW 7 11 29.68 1005 10 16.0934 0 0
10:53 pm 22:53 Clear 104 40 38 3.3 10 10 W 12 19 29.68 1005 10 16.0934 0 0
11:53 pm 23:53 Clear 102 38.9 39 3.9 11 11 WSW 10 17 29.68 1005 10 16.0934 0 0

Powered by AerisWeather